sat.trackr.live / text

‹ back to catalog

SWARM A

NORAD 39452 · 2013-067B

PAYLOAD ACTIVE UNKNOWN

§ Identity

Operator
Country
ESA
Launch date
2013-11-22
Launch site
PLMSC
Launch vehicle
Mass (kg)
RCS (m²)
2.24

Purposes: science

External: N2YO · Heavens-Above · Gunter

§ Orbital elements

Epoch: 2026-09-14T22:05:07.722528Z

Period
92.86 min
Inclination
87.3359°
Eccentricity
0.0002381
Mean motion
15.50765971 rev/d
Perigee alt
412.9 km
Apogee alt
416.1 km
Semi-major
6,792.6 km
B*
1.8002e-4
RAAN
22.9002°
Arg perigee
100.6707°
Mean anomaly
259.4822°
Rev number
72,015

§ Raw data

SWARM A1 39452U 13067B   26257.92022827  .00010400  00000+0  18002-3 0  99922 39452  87.3359  22.9002 0002381 100.6707 259.4822 15.50765971720153

JSON: /api/v1/satellites/39452 · /tle

For live sub-satellite position, see the globe view (requires WebGL).

§ Visibility from observer

Set your observer location to see the next 7 days of passes ≥ 10°. The values pass through the URL so the page stays shareable.

No JS? Fill the form by hand. The geolocation button needs JavaScript.

§ Radio — SatNOGS DB

ModeDescriptionDownlinkUplink
FM S-Band (2249MHz) 2.249 GHz

1 transmitter · refreshed weekly from db.satnogs.org